Find Starlink 11599

NORAD ID: 63670 Int'l Des: 2025-085 Owner: SPXS Country: US Constellation: starlink operational
別名: STARLINK-11599 [DTC] celestrak
LEOCIRCULAR

現在のビュー

3D地球を読み込み中...

About Starlink 11599

Starlink 11599 (NORAD 63670) is a starlink constellation satellite (v2 mini d2c) launched Apr 28, 2025 by SPXS of US. It operates in LEO, CIRCULAR orbit with a mass of 960.00 kg.

次回通過

Passes for default location (London). Set your location on the main map for personalized predictions.

高度履歴

Loading altitude history...

軌道要素

1 63670U 25085G 26263.08692785 .00122201 00000-0 93833-3 0 9993
2 63670 42.9945 186.8168 0001411 228.7472 131.3274 15.70930193 80810
Epoch: Sep 20, 2026 • Age: 15 hours

現在のステータス

高度 358.5 km
遠地点 / 近地点 N/A
速度 7.70 km/s
衛星直下点 -17.18°S, 132.48°E
打ち上げ日 Apr 28, 2025
運用期間 1.3 years
タイプ internet

技術仕様

分類 Payload
質量 960.00 kg
乾燥質量 910.00 kg
長さ 0.30 m
スパン 29.00 m
形状 ? Box + pan
製造者 SPXS
バスタイプ Starlink V2MD
フェーズステータス In Orbit
所有者/国 SPXS/US

Most Searched